TimePDT,TemperatureF,Dew PointF,Humidity,Sea Level PressureIn,VisibilityMPH,Wind Direction,Wind SpeedMPH,Gust SpeedMPH,PrecipitationIn,Events,Conditions,WindDirDegrees,DateUTC
12:52 AM,57.9,52.0,81,29.86,10.0,South,12.7,-,N/A,,Clear,190,2012-10-15 07:52:00
1:52 AM,57.9,51.1,78,29.87,10.0,SSW,10.4,-,N/A,,Overcast,200,2012-10-15 08:52:00
2:52 AM,57.0,51.1,81,29.86,10.0,South,9.2,-,N/A,,Overcast,190,2012-10-15 09:52:00
3:52 AM,57.9,51.1,78,29.83,10.0,South,11.5,-,0.02,,Overcast,190,2012-10-15 10:52:00
4:52 AM,57.9,51.1,78,29.84,10.0,South,13.8,21.9,N/A,,Overcast,190,2012-10-15 11:52:00
5:52 AM,55.9,52.0,87,29.86,10.0,South,6.9,-,N/A,,Mostly Cloudy,170,2012-10-15 12:52:00
6:52 AM,55.0,51.1,86,29.87,10.0,South,8.1,-,N/A,,Clear,180,2012-10-15 13:52:00
7:52 AM,55.9,51.1,84,29.88,10.0,South,10.4,-,N/A,,Clear,190,2012-10-15 14:52:00
8:52 AM,59.0,51.1,75,29.89,10.0,SSW,5.8,-,N/A,,Clear,210,2012-10-15 15:52:00
9:52 AM,62.1,51.1,67,29.89,10.0,SSW,4.6,-,N/A,,Clear,200,2012-10-15 16:52:00
10:52 AM,66.2,48.2,52,29.89,10.0,SW,10.4,-,N/A,,Clear,230,2012-10-15 17:52:00
11:52 AM,68.0,48.0,49,29.86,10.0,SSW,13.8,-,N/A,,Clear,210,2012-10-15 18:52:00
12:52 PM,69.1,48.9,49,29.86,10.0,SSW,11.5,-,N/A,,Clear,200,2012-10-15 19:52:00
1:52 PM,68.0,48.9,50,29.82,10.0,South,15.0,-,N/A,,Clear,190,2012-10-15 20:52:00
2:52 PM,69.1,48.0,47,29.80,10.0,SSW,10.4,-,N/A,,Clear,200,2012-10-15 21:52:00
3:52 PM,68.0,46.9,47,29.77,10.0,South,11.5,-,N/A,,Scattered Clouds,180,2012-10-15 22:52:00
4:52 PM,64.9,50.0,58,29.74,10.0,SSW,15.0,18.4,0.00,,Overcast,210,2012-10-15 23:52:00
5:52 PM,61.0,54.0,78,29.73,10.0,South,16.1,-,0.02,Rain,Light Rain,190,2012-10-16 00:52:00
6:52 PM,59.0,55.9,90,29.68,10.0,SSE,12.7,-,0.10,Rain,Light Rain,160,2012-10-16 01:52:00
7:21 PM,59.0,57.2,94,29.68,10.0,South,10.4,-,0.01,Rain,Light Rain,170,2012-10-16 02:21:00
7:49 PM,59.0,57.2,94,29.68,10.0,South,10.4,-,0.02,Rain,Light Rain,170,2012-10-16 02:49:00
7:52 PM,59.0,57.0,93,29.68,10.0,South,10.4,-,0.02,Rain,Light Rain,170,2012-10-16 02:52:00
8:01 PM,59.0,57.2,94,29.67,10.0,SSE,11.5,-,0.00,Rain,Light Rain,160,2012-10-16 03:01:00
8:52 PM,59.0,57.0,93,29.64,10.0,SSE,10.4,-,0.00,,Overcast,160,2012-10-16 03:52:00
8:59 PM,59.0,55.4,88,29.63,10.0,SSE,12.7,-,N/A,,Mostly Cloudy,160,2012-10-16 03:59:00
9:52 PM,59.0,55.9,90,29.60,10.0,SSE,9.2,-,N/A,,Overcast,150,2012-10-16 04:52:00
10:52 PM,57.9,55.0,90,29.56,10.0,SSE,6.9,-,N/A,,Clear,160,2012-10-16 05:52:00
11:52 PM,59.0,55.9,90,29.55,10.0,South,6.9,-,N/A,,Clear,180,2012-10-16 06:52:00